Weather History for Toluca Jose Maria, Mexico

Change the Weather History Date:

Sunday, June 23, 2013

  Actual Average Record
Temperature  
Mean Temperature 60 °F -  
Max Temperature 68 °F 69 °F 73 °F (1998)
Min Temperature 51 °F 48 °F 44 °F (2007)
Degree Days  
Heating Degree Days 6    
Growing Degree Days 10 (Base 50)    
Moisture  
Dew Point 49 °F    
Average Humidity 74    
Maximum Humidity 88    
Minimum Humidity 49    
Precipitation  
Precipitation 1.80 in - - ()
Sea Level Pressure  
Sea Level Pressure 30.16 in    
Wind  
Wind Speed 6 mph ()    
Max Wind Speed 20 mph    
Max Gust Speed -    
Visibility 4.6 miles    
Events Rain    
Averages and records for this station are not official NWS values.
T = Trace of Precipitation, MM = Missing Value Source: Averaged Metar Reports

Daily Weather History Graph

Daily Weather History Graph

Search for Another Location

Airport:

Trip Planner

Search our weather history database for the weather conditions in past years. The results will help you decide how hot, cold, wet, or windy it might be!

Date:

Astronomy

Jun. 23, 2013 Rise Set
Actual Time 7:01 AM CDT 8:19 PM CDT
Civil Twilight 6:37 AM CDT 8:43 PM CDT
Nautical Twilight 6:08 AM CDT 9:12 PM CDT
Astronomical Twilight 5:38 AM CDT 9:42 PM CDT
Moon 8:44 PM CDT (6/23) 7:12 AM CDT (6/23)
Length of Visible Light 14h 06m
Length of Day
13h 17m
Full, 100% of the Moon is Illuminated
Jun 23
Full
Jun 29
Last Quarter
Jul 8
New
Jul 15
First Quarter
Jul 22
Full

Hourly Weather History & Observations

Time (CDT) Temp. Dew Point Humidity Pressure Visibility Wind Dir Wind Speed Gust Speed Precip Events Conditions
12:54 AM 55.4 °F 51.8 °F 88% 29.83 in 4.0 mi South 8.1 mph - N/A Rain Rain
2:44 AM 53.6 °F 48.2 °F 82% 30.26 in 3.0 mi SSE 9.2 mph - N/A Rain Rain
3:48 AM 53.6 °F 48.2 °F 82% 29.73 in 3.0 mi SE 8.1 mph - N/A   Haze
4:42 AM 55.4 °F 48.2 °F 77% 30.32 in 3.0 mi ESE 3.5 mph - N/A   Overcast
5:42 AM 51.8 °F 48.2 °F 88% 30.32 in 3.0 mi Calm Calm - N/A   Overcast
6:50 AM 51.8 °F 48.2 °F 88% 29.82 in 3.0 mi SE 5.8 mph - N/A   Overcast
7:48 AM 53.6 °F 48.2 °F 82% 30.35 in 3.0 mi Calm Calm - N/A   Overcast
8:46 AM 53.6 °F 48.2 °F 82% 30.37 in 3.0 mi Calm Calm - N/A   Overcast
9:48 AM 55.4 °F 50.0 °F 82% 29.86 in 3.0 mi Calm Calm - N/A   Overcast
10:46 AM 60.8 °F 48.2 °F 63% 30.38 in 4.0 mi SSE 4.6 mph - N/A   Mostly Cloudy
11:48 AM 64.4 °F 50.0 °F 59% 30.37 in 5.0 mi SSE 4.6 mph - N/A   Mostly Cloudy
12:46 PM 66.2 °F 51.8 °F 60% 29.75 in 7.0 mi East 9.2 mph - N/A   Mostly Cloudy
1:14 PM 64.4 °F 50.0 °F 59% 30.36 in 6.0 mi ESE 9.2 mph - N/A   Overcast
1:46 PM 64.4 °F 50.0 °F 59% 30.34 in 6.0 mi East 9.2 mph - N/A   Overcast
2:42 PM 68.0 °F 48.2 °F 49% 30.32 in 6.0 mi East 3.5 mph - N/A   Overcast
3:40 PM 64.4 °F 48.2 °F 56% 29.75 in 6.0 mi South 18.4 mph - N/A   Overcast
4:46 PM 64.4 °F 51.8 °F 64% 30.29 in 6.0 mi SSE 19.6 mph - N/A   Overcast
5:48 PM 62.6 °F 50.0 °F 63% 30.28 in 6.0 mi South 16.1 mph - N/A   Overcast
6:40 PM 62.6 °F 50.0 °F 63% 29.76 in 5.0 mi South 8.1 mph - N/A   Overcast
7:25 PM 57.2 °F 51.8 °F 82% 30.30 in 4.0 mi SSW 9.2 mph - N/A Rain Light Rain
7:45 PM 55.4 °F 50.0 °F 82% 30.32 in 6.0 mi East 5.8 mph - N/A   Overcast
8:43 PM 55.4 °F 48.2 °F 77% 30.34 in 5.0 mi South 11.5 mph - N/A Rain Light Rain
9:45 PM 53.6 °F 50.0 °F 88% 29.87 in 5.0 mi South 3.5 mph - N/A Rain Light Rain
10:45 PM 53.6 °F 50.0 °F 88% 30.38 in 5.0 mi Calm Calm - N/A Rain Light Rain
11:45 PM 55.4 °F 50.0 °F 82% 30.40 in 5.0 mi Calm Calm - N/A   Mostly Cloudy